Regional Weather Roundup
Issued by NWS

Home | Current Version | Previous Version | Text Only | Print | Product List | Glossary On
Versions: 1 2 3 4 5 6 7 8 9 10 11 12 13 14 15 16 17 18 19 20 21 22 23 24 25 26 27 28 29 30 31 32 33 34 35 36 37 38 39 40 41 42 43 44 45 46 47 48 49 50
000
ASUS44 KJAN 020110
RWRMS

MISSISSIPPI HOURLY WEATHER ROUNDUP
NATIONAL WEATHER SERVICE JACKSON MS
800 PM CDT MON JUN 01 2015

NOTE: "FAIR: INDICATES FEW OR NO CLOUDS BELOW 12,000 FEET WITH NO
SIGNIFICANT WEATHER AND/OR OBSTRUCTIONS TO VISIBILITY.

MSZ001>002-007>008-010>013-018>021-025>028-034>036-020200-
NORTHWEST MISSISSIPPI

CITY           SKY/WX    TMP DP  RH WIND       PRES   REMARKS
CLARKSDALE       N/A     68  64  88 CALM      30.07R
CLEVELAND      FAIR      71  67  85 NE6       30.04R
GREENWOOD      CLEAR     71  63  75 N7        30.04R
GREENVILLE     CLEAR     73  65  75 NE7       30.03R
OLIVE BRANCH   MOCLDY    66  64  94 N10       30.08R
OXFORD         FAIR      66  59  77 N3        30.08S
TUNICA         CLEAR     70  61  73 N7        30.07S
$$

MSZ003>006-009-014>017-022>024-029>033-037>039-020200-
NORTHEAST MISSISSIPPI

CITY           SKY/WX    TMP DP  RH WIND       PRES   REMARKS
COLUMBUS AFB   CLEAR     72  65  79 N13       30.03R
CORINTH        CLOUDY    68  63  83 CALM      30.05F
GOLDN TRIANGLE PTCLDY    73  64  73 N12       30.02R
STARKVILLE     FAIR      72  64  78 N3        30.03S
TUPELO         PTCLDY    68  61  78 NE6       30.06R
$$

MSZ040-058-020200-
CENTRAL MISSISSIPPI

CITY           SKY/WX    TMP DP  RH WIND       PRES   REMARKS
JACKSON INTL   PTCLDY    75  66  73 N10       30.02R
JACKSON HAWKNS CLEAR     75  66  73 N6        30.02R
MERIDIAN KEY   CLEAR     75  69  81 N3        30.00R
MERIDIAN NAS   PTCLDY    75  69  81 E5        30.00R
RAYMOND        FAIR      75  70  83 CALM      30.02R
VICKSBURG      PTCLDY    75  66  73 N7        30.02R
$$

MSZ059>079-020200-
SOUTH MISSISSIPPI

CITY           SKY/WX    TMP DP  RH WIND       PRES   REMARKS
BROOKHAVEN       N/A     73  73 100 CALM      30.02S
HATTIESBURG    PTCLDY    77  71  82 CALM      29.99R
MCCOMB         CLOUDY    80  70  71 CALM      30.00R
NATCHEZ        CLEAR     75  66  73 MISG      30.01R
PINE BELT      PTCLDY    77  66  69 CALM      30.01S
$$

MSZ080>082-020200-
COASTAL MISSISSIPPI

CITY           SKY/WX    TMP DP  RH WIND       PRES   REMARKS
BAY ST LOUIS   CLEAR     75  68  78 MISG      29.98R
BILOXI         MOCLDY    79  70  73 E2        29.97F
PASCAGOULA     CLOUDY    72  71  97 CALM      29.99F
GULFPORT       MOCLDY    78  70  76 NE6       29.98R
$$


USA.gov is the U.S. government's official web portal to all federal, state and local government web resources and services.